Location: Llanfihangel-Ystrad
(52.1833°N, 4.1667°W)
Time: 14:53:53
(UTC+00:00)

Cosmos 2333 Rocket - Pass Details

Date: 17 February 2020
Orbit: 841 x 861 km, 70.8° (Epoch: 27 March)

Event Time Altitude Azimuth Distance (km) Brightness Sun altitude
Exits shadow 05:13:55 24° 318° (NW) 1,726 3.5 -21.3°
Maximum altitude 05:14:20 24° 325° (NW) 1,718 3.5 -21.3°
Drops below altitude 10° 05:18:55 10° 18° (NNE) 2,494 4.9 -20.6°
Sets 05:21:53 0° 32° (NNE) 3,429 5.9 -20.1°
